[[{"header":{"parameterUnit":"m.s-1","parameterCategory":1,"la1":30.2992,"la2":30.254,"lo1":-89.0895,"lo2":-89.0443,"dy":0.0025,"dx":0.0025,"nx":19,"ny":19,"refTime":"2026-03-18T03:00:00:Z","depth":0,"parameterNumber":2,"parameterNumberName":"U-component_of_WINDS"},"data":[0,0,0,-0.4849,-0.485,-0.4891,-0.4892,-0.4953,-0.4954,0,0,0,0,0,0,0,0,0,0,0,-0.484,-0.4841,-0.4849,-0.485,-0.4891,-0.4892,-0.4953,-0.4954,0,0,0,0,0,0,0,0,0,0,0,-0.484,-0.4841,-0.4841,-0.485,-0.4891,-0.4892,-0.4953,-0.4919,0,0,0,0,0,0,0,0,0,0,-0.4878,-0.4872,-0.4841,-0.4841,-0.4851,-0.4891,-0.4892,-0.4917,-0.4921,-0.4938,0,-0.4951,0,-0.4953,-0.4958,-0.4958,0,0,0,-0.4848,-0.4869,-0.4877,-0.4841,-0.4851,-0.4891,-0.4872,-0.4919,-0.4924,-0.4943,-0.4952,-0.4954,-0.4954,-0.4959,-0.4959,-0.5057,-0.5058,0,0,-0.4846,-0.485,-0.4874,-0.488,-0.4872,-0.4871,-0.4873,-0.4922,-0.4933,-0.4952,-0.4956,-0.4955,-0.4959,-0.496,-0.5057,-0.5058,0,0,0,-0.4841,-0.4849,-0.4855,-0.4878,-0.4884,-0.4872,-0.4875,-0.4931,-0.4933,-0.4956,-0.4956,-0.4959,-0.496,-0.5056,-0.5057,-0.5089,0,0,0,-0.4839,-0.4845,-0.4854,-0.4857,-0.4883,-0.4908,-0.4883,-0.4929,-0.4935,-0.4956,-0.4959,-0.4961,-0.5056,-0.5057,-0.5087,-0.5104,0,0,0,-0.4837,-0.4845,-0.4852,-0.4857,-0.4875,-0.4907,-0.4911,-0.493,-0.4935,-0.4958,-0.4961,-0.5055,-0.5057,-0.5085,-0.5101,-0.5133,0,0,0,-0.4835,-0.488,-0.4853,-0.4903,-0.4875,-0.4925,-0.4911,-0.4949,-0.4973,-0.496,-0.5056,-0.5057,-0.5084,-0.5099,-0.513,-0.5161,-0.5173,0,0,-0.4894,-0.4887,-0.4916,-0.4893,-0.495,-0.4919,-0.4981,-0.5,-0.4999,-0.5038,-0.5041,-0.5088,-0.5101,-0.5132,-0.524,-0.525,0,0,0,-0.4937,-0.4958,-0.4972,-0.4994,-0.5009,-0.5023,-0.5032,-0.5039,-0.5072,-0.5019,-0.5107,-0.5114,-0.5133,-0.5147,-0.5156,-0.5172,-0.5063,-0.5063,-0.5063,-0.5027,-0.5022,-0.5071,-0.5072,-0.5094,-0.5102,-0.5121,-0.5132,-0.5121,-0.5142,-0.5154,-0.522,-0.5237,-0.5243,-0.526,-0.5169,-0.5169,-0.5169,-0.5169,-0.5114,-0.5145,-0.5129,-0.517,-0.5166,-0.5202,-0.5212,-0.5203,-0.5237,-0.521,-0.5226,-0.5198,-0.5254,-0.5269,-0.5171,-0.5171,-0.5171,-0.517,-0.517,-0.5174,-0.5188,-0.5195,-0.5228,-0.5254,-0.5253,-0.5287,-0.5281,-0.5277,-0.5292,-0.5306,-0.5306,-0.5306,-0.5299,-0.5299,-0.5299,-0.53,-0.53,-0.53,-0.5235,-0.5241,-0.5269,-0.5289,-0.5303,-0.5321,-0.5331,-0.5345,-0.536,-0.5354,-0.5354,-0.5343,-0.5259,-0.524,-0.5303,-0.5303,-0.5302,-0.5302,-0.5302,-0.5328,-0.5306,-0.5349,-0.5363,-0.5387,-0.5414,-0.5406,-0.5437,-0.5448,-0.5465,-0.545,-0.5388,-0.5382,-0.5375,-0.5359,-0.5449,-0.5449,-0.5449,-0.5449,-0.538,-0.5375,-0.5419,-0.5442,-0.5465,-0.5462,-0.5514,-0.5522,-0.5527,-0.5534,-0.552,-0.5498,-0.5491,-0.5488,-0.5479,-0.5464,-0.5579,-0.5579,-0.5579,-0.5438,-0.5435,-0.5479,-0.5482,-0.55,-0.5517,-0.5565,-0.5595,-0.5596,-0.5585,-0.5541,-0.5535,-0.5498,-0.5486,-0.5476,-0.5461,-0.5433,0,0]},{"header":{"parameterUnit":"m.s-1","parameterCategory":1,"la1":30.2992,"la2":30.254,"lo1":-89.0895,"lo2":-89.0443,"dy":0.0025,"dx":0.0025,"nx":19,"ny":19,"refTime":"2026-03-18T03:00:00:Z","depth":0,"parameterNumber":3,"parameterNumberName":"V-component_of_WINDS"},"data":[0,0,0,2.8897,2.8899,2.8953,2.8954,2.9025,2.9025,0,0,0,0,0,0,0,0,0,0,0,2.8884,2.8884,2.8897,2.8899,2.8953,2.8954,2.9025,2.9025,0,0,0,0,0,0,0,0,0,0,0,2.8883,2.8884,2.8885,2.8899,2.8953,2.8954,2.9025,2.8982,0,0,0,0,0,0,0,0,0,0,2.8929,2.8919,2.8884,2.8885,2.8899,2.8953,2.8954,2.898,2.8985,2.9001,0,2.9018,0,2.9023,2.903,2.9031,0,0,0,2.8896,2.8916,2.8928,2.8885,2.89,2.8953,2.8928,2.8983,2.8988,2.9007,2.9019,2.9021,2.9024,2.9031,2.9031,2.9133,2.9134,0,0,2.8893,2.8895,2.8924,2.8932,2.8925,2.8926,2.893,2.8986,2.8998,2.9019,2.9023,2.9025,2.9031,2.9032,2.9133,2.9133,0,0,0,2.8886,2.8893,2.8904,2.8929,2.8939,2.8928,2.8932,2.8995,2.8999,2.9024,2.9026,2.9032,2.9033,2.9132,2.9133,2.9162,0,0,0,2.8884,2.8889,2.8903,2.8904,2.8938,2.8968,2.894,2.8995,2.9001,2.9026,2.9032,2.9034,2.9131,2.9132,2.9159,2.9174,0,0,0,2.8879,2.8888,2.8897,2.8904,2.8928,2.8967,2.8974,2.8996,2.9003,2.9031,2.9034,2.9131,2.9132,2.9158,2.9171,2.9199,0,0,0,2.8874,2.8923,2.8898,2.8953,2.8927,2.8986,2.8974,2.9017,2.9044,2.9032,2.9132,2.9133,2.9157,2.9169,2.9197,2.9222,2.9233,0,0,2.8937,2.8931,2.8963,2.8942,2.9005,2.8977,2.9044,2.9068,2.9069,2.9111,2.9114,2.916,2.9171,2.9199,2.9298,2.9307,0,0,0,2.8983,2.9006,2.9023,2.9049,2.9069,2.9085,2.9099,2.9107,2.9142,2.9092,2.9179,2.9186,2.9202,2.9213,2.9221,2.9233,2.9139,2.9139,2.9139,2.9073,2.9072,2.9124,2.9128,2.9154,2.9166,2.9185,2.9198,2.9191,2.9211,2.9223,2.9283,2.9297,2.9303,2.9316,2.9238,2.9238,2.9238,2.9238,2.9163,2.9193,2.918,2.9226,2.9223,2.9261,2.9274,2.9266,2.9299,2.9275,2.9289,2.9261,2.9312,2.9323,2.924,2.924,2.924,2.9239,2.9239,2.9219,2.9234,2.9243,2.9278,2.9306,2.9308,2.934,2.9337,2.9335,2.9349,2.9359,2.9358,2.9355,2.9354,2.9354,2.9355,2.9355,2.9355,2.9355,2.9274,2.9283,2.9311,2.9334,2.9348,2.9367,2.9378,2.9392,2.9407,2.9402,2.9402,2.9389,2.9319,2.9299,2.9358,2.9358,2.9357,2.9357,2.9357,2.9361,2.934,2.9383,2.9397,2.9422,2.9447,2.9443,2.9471,2.9482,2.9497,2.9482,2.9431,2.9424,2.9418,2.9402,2.9484,2.9484,2.9484,2.9484,2.9406,2.9403,2.9444,2.9467,2.9489,2.9489,2.9534,2.9542,2.9547,2.9553,2.9541,2.9521,2.9515,2.9511,2.9503,2.9488,2.959,2.959,2.959,2.9458,2.9456,2.9496,2.9501,2.952,2.9535,2.9576,2.9601,2.9603,2.9594,2.9557,2.9553,2.9519,2.9509,2.9497,2.9485,2.9457,0,0]}]]